Location: Athabasca
(54.7194°N, 113.2858°W)
Time: 11:43:45
(UTC+00:00)

PRISM - Pass Details

Date: 03 December 2023
Orbit: 515 x 532 km, 98.2° (Epoch: 04 March)

Event Time Altitude Azimuth Distance (km) Brightness Sun altitude
Exits shadow 01:54:33 19° 357° (N) 1,339 ? -22.4°
Drops below altitude 10° 01:55:46 10° 352° (N) 1,825 ? -22.5°
Sets 01:57:55 0° 348° (NNW) 2,717 ? -22.9°
